Location: La Fredeussais
(48.1780°N, 1.3980°W)
Time: 18:07:16
(UTC+00:00)

SJ 16-02 - Pass Details

Date: 09 May 2021
Orbit: 606 x 616 km, 75.0° (Epoch: 21 June)

Event Time Altitude Azimuth Distance (km) Brightness Sun altitude
Exits shadow 20:52:08 15° 112° (ESE) 1,666 3.0 -11.8°
Maximum altitude 20:53:09 16° 95° (E) 1,610 3.0 -11.9°
Drops below altitude 10° 20:55:53 10° 57° (ENE) 1,986 3.8 -12.2°
Sets 20:58:50 0° 37° (NE) 2,897 4.9 -12.6°
